�������l�o���
Date,Time,MP-1(��Sv/h),MP-2(��Sv/h),MP-3(��Sv/h),MP-4(��Sv/h),MP-5(��Sv/h),MP-6(��Sv/h),MP-7(��Sv/h),MP-8(��Sv/h),����,����(m/s),���J
2021/01/13,00:00,0.631,0.879,0.579,1.137,0.781,0.365,0.656,0.623,�k�k��,4.6,��
2021/01/13,00:10,0.631,0.879,0.579,1.138,0.783,0.364,0.655,0.621,�k�k��,3.7,��
2021/01/13,00:20,0.631,0.881,0.580,1.139,0.784,0.366,0.655,0.623,�k�k��,5.2,��
2021/01/13,00:30,0.631,0.880,0.579,1.137,0.783,0.365,0.655,0.622,�k�k��,5.5,��
2021/01/13,00:40,0.632,0.880,0.579,1.140,0.783,0.365,0.655,0.623,�k��,3.9,��
2021/01/13,00:50,0.630,0.879,0.579,1.137,0.783,0.364,0.656,0.623,���k��,2.6,��
2021/01/13,01:00,0.631,0.882,0.579,1.136,0.783,0.365,0.656,0.621,���k��,2.6,��
2021/01/13,01:10,0.631,0.882,0.578,1.138,0.784,0.365,0.655,0.623,���k��,2.6,��
2021/01/13,01:20,0.631,0.881,0.578,1.136,0.784,0.364,0.654,0.623,���쐼,3.4,��
2021/01/13,01:30,0.633,0.881,0.578,1.139,0.781,0.366,0.656,0.623,�k,1.2,��
2021/01/13,01:40,0.631,0.880,0.578,1.137,0.784,0.365,0.656,0.623,�k�k��,1.7,��
2021/01/13,01:50,0.630,0.879,0.580,1.140,0.783,0.365,0.655,0.622,�k,2.9,��
2021/01/13,02:00,0.630,0.883,0.579,1.137,0.783,0.363,0.656,0.622,�k�k��,4.2,��
2021/01/13,02:10,0.632,0.880,0.578,1.139,0.783,0.364,0.655,0.623,�k�k��,3.6,��
2021/01/13,02:20,0.630,0.881,0.578,1.137,0.783,0.363,0.655,0.621,�k�k��,3.4,��
2021/01/13,02:30,0.630,0.880,0.578,1.138,0.783,0.364,0.655,0.623,�k�k��,2.5,��
2021/01/13,02:40,0.631,0.883,0.579,1.139,0.783,0.364,0.653,0.622,�k��,2.0,��
2021/01/13,02:50,0.630,0.881,0.578,1.137,0.784,0.367,0.654,0.621,��,2.0,��
2021/01/13,03:00,0.629,0.881,0.577,1.135,0.783,0.365,0.653,0.622,���k��,5.0,��
2021/01/13,03:10,0.631,0.880,0.578,1.138,0.782,0.363,0.654,0.622,��,6.9,��
2021/01/13,03:20,0.630,0.881,0.578,1.138,0.781,0.363,0.654,0.622,��,10.7,��
2021/01/13,03:30,0.631,0.879,0.577,1.139,0.782,0.364,0.655,0.621,��,11.0,��
2021/01/13,03:40,0.629,0.880,0.579,1.139,0.782,0.363,0.656,0.621,��,9.9,��
2021/01/13,03:50,0.630,0.878,0.577,1.140,0.781,0.363,0.655,0.622,��,7.9,��
2021/01/13,04:00,0.631,0.880,0.576,1.139,0.783,0.365,0.655,0.624,��,8.0,��
2021/01/13,04:10,0.630,0.878,0.577,1.139,0.782,0.365,0.656,0.621,��,9.1,��
2021/01/13,04:20,0.631,0.881,0.577,1.139,0.781,0.362,0.657,0.624,��,9.3,��
2021/01/13,04:30,0.629,0.878,0.577,1.140,0.782,0.365,0.657,0.623,��,7.8,��
2021/01/13,04:40,0.631,0.879,0.578,1.137,0.782,0.364,0.656,0.622,��,6.3,��
2021/01/13,04:50,0.630,0.881,0.578,1.140,0.784,0.365,0.656,0.622,��,4.7,��
2021/01/13,05:00,0.631,0.878,0.579,1.140,0.781,0.364,0.658,0.623,��,4.3,��
2021/01/13,05:10,0.631,0.880,0.578,1.142,0.781,0.364,0.655,0.623,��,3.6,��
2021/01/13,05:20,0.631,0.881,0.577,1.139,0.780,0.363,0.657,0.623,��,4.0,��
2021/01/13,05:30,0.629,0.879,0.578,1.139,0.782,0.366,0.655,0.624,��,4.3,��
2021/01/13,05:40,0.629,0.880,0.577,1.137,0.783,0.364,0.656,0.623,��,5.2,��
2021/01/13,05:50,0.630,0.880,0.580,1.141,0.781,0.363,0.656,0.622,��,4.6,��
2021/01/13,06:00,0.631,0.881,0.576,1.140,0.781,0.365,0.656,0.624,��,6.1,��
2021/01/13,06:10,0.629,0.880,0.578,1.139,0.780,0.363,0.656,0.622,���k��,3.2,��
2021/01/13,06:20,0.628,0.879,0.578,1.140,0.781,0.365,0.655,0.624,���쐼,3.9,��
2021/01/13,06:30,0.630,0.879,0.577,1.140,0.782,0.364,0.658,0.623,��,4.2,��
2021/01/13,06:40,0.631,0.878,0.577,1.140,0.781,0.364,0.658,0.622,���쐼,3.7,��
2021/01/13,06:50,0.629,0.881,0.578,1.139,0.781,0.364,0.655,0.623,�쐼,2.3,��
2021/01/13,07:00,0.631,0.878,0.577,1.139,0.779,0.364,0.657,0.622,���k��,1.4,��
2021/01/13,07:10,0.631,0.879,0.576,1.141,0.782,0.364,0.655,0.622,���k��,1.1,��
2021/01/13,07:20,0.629,0.878,0.578,1.140,0.781,0.362,0.656,0.622,���쐼,3.6,��
2021/01/13,07:30,0.629,0.877,0.577,1.142,0.780,0.363,0.655,0.624,��,4.3,��
2021/01/13,07:40,0.631,0.879,0.577,1.139,0.780,0.361,0.657,0.622,��,2.8,��
2021/01/13,07:50,0.630,0.880,0.577,1.138,0.780,0.364,0.658,0.620,�쐼,2.2,��
2021/01/13,08:00,0.630,0.879,0.577,1.141,0.780,0.364,0.657,0.622,�쐼,3.1,��
2021/01/13,08:10,0.630,0.881,0.577,1.141,0.781,0.362,0.657,0.622,�쐼,4.7,��
2021/01/13,08:20,0.632,0.880,0.578,1.140,0.780,0.363,0.656,0.624,�쐼,3.8,��
2021/01/13,08:30,0.628,0.877,0.577,1.140,0.781,0.363,0.656,0.624,�쐼,3.1,��
2021/01/13,08:40,0.630,0.876,0.578,1.139,0.781,0.364,0.658,0.624,��쐼,2.0,��
2021/01/13,08:50,0.632,0.879,0.576,1.139,0.781,0.362,0.657,0.623,���쐼,2.6,��
2021/01/13,09:00,0.631,0.879,0.578,1.141,0.782,0.364,0.658,0.624,�쐼,3.2,��
2021/01/13,09:10,0.631,0.878,0.576,1.142,0.780,0.363,0.655,0.624,��,5.4,��
2021/01/13,09:20,0.632,0.880,0.580,1.141,0.784,0.364,0.657,0.623,��,4.9,��
2021/01/13,09:30,0.635,0.881,0.578,1.141,0.783,0.364,0.659,0.624,��,5.6,��
2021/01/13,09:40,0.634,0.880,0.578,1.141,0.783,0.364,0.658,0.624,��,3.9,��
2021/01/13,09:50,0.634,0.882,0.579,1.144,0.784,0.362,0.657,0.622,��,4.2,��
2021/01/13,10:00,0.635,0.881,0.579,1.143,0.785,0.365,0.657,0.623,��,6.6,��
2021/01/13,10:10,0.633,0.879,0.578,1.144,0.785,0.365,0.655,0.623,��,6.3,��
2021/01/13,10:20,0.637,0.882,0.579,1.144,0.787,0.364,0.657,0.623,��,5.6,��
2021/01/13,10:30,0.636,0.886,0.581,1.143,0.788,0.365,0.658,0.624,��,6.9,��
2021/01/13,10:40,0.637,0.884,0.580,1.146,0.786,0.365,0.656,0.624,��,7.4,��
2021/01/13,10:50,0.636,0.888,0.582,1.146,0.789,0.366,0.657,0.624,��,6.6,��
2021/01/13,11:00,0.640,0.890,0.582,1.145,0.791,0.365,0.657,0.624,���쐼,5.9,��
2021/01/13,11:10,0.640,0.891,0.583,1.147,0.792,0.365,0.657,0.625,��,7.0,��
2021/01/13,11:20,0.640,0.894,0.586,1.147,0.793,0.366,0.658,0.624,��,6.4,��
2021/01/13,11:30,0.642,0.897,0.586,1.149,0.794,0.365,0.658,0.624,���쐼,7.0,��
2021/01/13,11:40,0.640,0.899,0.587,1.149,0.794,0.367,0.658,0.625,���쐼,4.9,��
2021/01/13,11:50,0.643,0.899,0.587,1.147,0.796,0.366,0.659,0.625,��,6.5,��
2021/01/13,12:00,0.643,0.904,0.590,1.148,0.800,0.367,0.660,0.625,��,7.7,��
2021/01/13,12:10,0.643,0.902,0.590,1.149,0.797,0.366,0.659,0.625,��,8.4,��
2021/01/13,12:20,0.645,0.904,0.590,1.149,0.799,0.368,0.659,0.626,��,7.2,��
2021/01/13,12:30,0.646,0.908,0.591,1.152,0.800,0.368,0.662,0.625,��,10.5,��
2021/01/13,12:40,0.646,0.907,0.590,1.151,0.800,0.369,0.660,0.628,��,8.0,��
2021/01/13,12:50,0.649,0.909,0.592,1.152,0.802,0.368,0.660,0.626,��,5.9,��
2021/01/13,13:00,0.646,0.907,0.591,1.151,0.805,0.368,0.662,0.627,��,6.8,��
2021/01/13,13:10,0.649,0.910,0.591,1.152,0.804,0.370,0.661,0.626,��,6.4,��
2021/01/13,13:20,0.648,0.909,0.592,1.154,0.803,0.368,0.661,0.627,��,8.0,��
2021/01/13,13:30,0.648,0.908,0.594,1.155,0.806,0.370,0.662,0.626,��,6.3,��
2021/01/13,13:40,0.648,0.910,0.593,1.155,0.802,0.370,0.662,0.624,���쐼,6.8,��
2021/01/13,13:50,0.648,0.910,0.593,1.154,0.805,0.369,0.662,0.623,��,6.6,��
2021/01/13,14:00,0.650,0.912,0.593,1.157,0.806,0.370,0.663,0.625,��,6.4,��
2021/01/13,14:10,0.649,0.910,0.594,1.157,0.807,0.369,0.664,0.624,��,8.4,��
2021/01/13,14:20,0.650,0.913,0.593,1.157,0.808,0.370,0.663,0.625,��,6.4,��
2021/01/13,14:30,0.650,0.912,0.596,1.158,0.809,0.370,0.664,0.624,��,7.2,��
2021/01/13,14:40,0.650,0.912,0.595,1.157,0.807,0.370,0.664,0.625,���쐼,7.7,��
2021/01/13,14:50,0.650,0.914,0.593,1.158,0.808,0.370,0.662,0.627,��,8.2,��
2021/01/13,15:00,0.651,0.914,0.594,1.159,0.808,0.370,0.663,0.628,��,6.3,��
2021/01/13,15:10,0.652,0.917,0.595,1.158,0.809,0.368,0.663,0.626,���쐼,4.9,��
2021/01/13,15:20,0.652,0.917,0.594,1.159,0.810,0.371,0.662,0.626,��,5.9,��
2021/01/13,15:30,0.652,0.919,0.594,1.160,0.812,0.371,0.662,0.626,���쐼,6.1,��
2021/01/13,15:40,0.652,0.916,0.593,1.160,0.810,0.371,0.663,0.627,���쐼,6.5,��
2021/01/13,15:50,0.653,0.919,0.593,1.159,0.809,0.372,0.663,0.626,��,5.9,��
2021/01/13,16:00,0.650,0.920,0.593,1.161,0.810,0.371,0.663,0.626,��,6.0,��
2021/01/13,16:10,0.650,0.920,0.594,1.160,0.810,0.371,0.663,0.626,��,5.8,��
2021/01/13,16:20,0.653,0.918,0.594,1.160,0.810,0.370,0.663,0.626,��,4.5,��
2021/01/13,16:30,0.651,0.922,0.595,1.160,0.811,0.371,0.662,0.626,��,6.3,��
2021/01/13,16:40,0.650,0.921,0.595,1.161,0.811,0.372,0.662,0.626,���쐼,6.9,��
2021/01/13,16:50,0.652,0.921,0.594,1.161,0.812,0.369,0.663,0.627,���쐼,6.9,��
2021/01/13,17:00,0.651,0.920,0.596,1.162,0.812,0.371,0.663,0.625,���쐼,6.2,��
2021/01/13,17:10,0.652,0.921,0.593,1.161,0.812,0.371,0.665,0.626,���쐼,5.3,��
2021/01/13,17:20,0.652,0.921,0.596,1.162,0.812,0.371,0.662,0.626,��,5.0,��
2021/01/13,17:30,0.651,0.921,0.595,1.160,0.811,0.372,0.661,0.625,��,3.6,��
2021/01/13,17:40,0.651,0.921,0.593,1.162,0.810,0.371,0.663,0.627,��,1.5,��
2021/01/13,17:50,0.649,0.922,0.595,1.158,0.811,0.371,0.663,0.626,�k��,1.5,��
2021/01/13,18:00,0.651,0.920,0.595,1.162,0.811,0.372,0.662,0.627,�쐼,1.5,��
2021/01/13,18:10,0.649,0.922,0.595,1.162,0.813,0.372,0.663,0.627,��,1.1,��
2021/01/13,18:20,0.650,0.922,0.593,1.160,0.811,0.371,0.662,0.625,�쐼,1.1,��
2021/01/13,18:30,0.652,0.921,0.593,1.162,0.812,0.371,0.663,0.625,���k��,2.5,��
2021/01/13,18:40,0.651,0.922,0.593,1.160,0.813,0.371,0.663,0.627,��,3.3,��
2021/01/13,18:50,0.651,0.922,0.595,1.162,0.812,0.371,0.663,0.627,���k��,4.7,��
2021/01/13,19:00,0.651,0.922,0.595,1.161,0.812,0.372,0.661,0.626,���k��,5.9,��
2021/01/13,19:10,0.651,0.918,0.595,1.161,0.813,0.372,0.663,0.626,���k��,6.0,��
2021/01/13,19:20,0.650,0.920,0.594,1.160,0.813,0.371,0.661,0.627,�k��,5.1,��
2021/01/13,19:30,0.650,0.921,0.593,1.162,0.811,0.371,0.663,0.627,�k��,5.1,��
2021/01/13,19:40,0.652,0.923,0.594,1.160,0.811,0.371,0.662,0.626,�k��,4.3,��
2021/01/13,19:50,0.650,0.920,0.594,1.162,0.813,0.372,0.662,0.627,�k��,2.6,��
2021/01/13,20:00,0.650,0.922,0.594,1.163,0.812,0.373,0.662,0.627,��,1.9,��
2021/01/13,20:10,0.651,0.922,0.594,1.161,0.812,0.372,0.663,0.627,��,2.8,��
2021/01/13,20:20,0.649,0.923,0.593,1.160,0.813,0.371,0.661,0.626,��,3.8,��
2021/01/13,20:30,0.651,0.921,0.594,1.161,0.813,0.372,0.663,0.625,��,4.7,��
2021/01/13,20:40,0.651,0.922,0.595,1.162,0.813,0.372,0.661,0.629,���쐼,5.1,��
2021/01/13,20:50,0.651,0.921,0.594,1.161,0.813,0.371,0.661,0.625,���쐼,6.4,��
2021/01/13,21:00,0.651,0.922,0.594,1.161,0.814,0.371,0.662,0.625,���쐼,6.1,��
2021/01/13,21:10,0.649,0.922,0.594,1.162,0.814,0.372,0.662,0.626,���쐼,4.5,��
2021/01/13,21:20,0.651,0.921,0.596,1.159,0.813,0.371,0.662,0.626,���쐼,4.8,��
2021/01/13,21:30,0.650,0.924,0.595,1.162,0.813,0.371,0.662,0.626,���쐼,5.1,��
2021/01/13,21:40,0.652,0.921,0.595,1.163,0.813,0.371,0.661,0.625,���쐼,5.7,��
2021/01/13,21:50,0.652,0.920,0.594,1.163,0.815,0.372,0.662,0.626,���쐼,5.6,��
2021/01/13,22:00,0.652,0.922,0.596,1.162,0.812,0.371,0.663,0.626,���쐼,5.1,��
2021/01/13,22:10,0.653,0.920,0.593,1.161,0.813,0.371,0.661,0.627,���쐼,5.4,��
2021/01/13,22:20,0.652,0.922,0.595,1.163,0.814,0.371,0.661,0.625,���쐼,5.6,��
2021/01/13,22:30,0.651,0.920,0.595,1.160,0.812,0.372,0.662,0.625,���쐼,6.0,��
2021/01/13,22:40,0.653,0.920,0.596,1.164,0.812,0.371,0.664,0.626,���쐼,6.9,��
2021/01/13,22:50,0.653,0.923,0.594,1.162,0.811,0.371,0.661,0.626,�쐼,7.3,��
2021/01/13,23:00,0.652,0.922,0.594,1.161,0.814,0.372,0.662,0.626,�쐼,6.9,��
2021/01/13,23:10,0.650,0.921,0.594,1.163,0.812,0.372,0.661,0.627,�쐼,6.9,��
2021/01/13,23:20,0.652,0.923,0.594,1.162,0.814,0.370,0.661,0.627,�쐼,6.5,��
2021/01/13,23:30,0.653,0.921,0.593,1.162,0.813,0.371,0.662,0.626,�쐼,6.7,��
2021/01/13,23:40,0.651,0.923,0.593,1.161,0.811,0.371,0.661,0.627,�쐼,6.4,��
2021/01/13,23:50,0.651,0.922,0.594,1.163,0.812,0.371,0.662,0.626,��쐼,6.7,��
